| time (UTC) | temp C | wind direction | speed KPH | gust KPH | rain 1hr cm | rain 24hr cm | rain mn cm | humidity % | barometer mb |
| 20260504081529 | 14 | 154 | 8.0 | 12.9 | 0.00 | 0.00 | 0.00 | 56 | 1010.3 |
| 20260504044530 | 15 | 161 | 11.3 | 16.1 | 0.00 | 0.00 | 0.00 | 50 | 1011.6 |
| 20260504043032 | 15 | 168 | 9.7 | 20.9 | 0.00 | 0.00 | 0.00 | 49 | 1011.7 |
| 20260504041534 | 15 | 164 | 12.9 | 24.1 | 0.00 | 0.00 | 0.00 | 47 | 1011.9 |
| 20260504040031 | 15 | 117 | 12.9 | 22.5 | 0.00 | 0.00 | 0.00 | 48 | 1012.0 |
| 20260504034530 | 15 | 173 | 14.5 | 20.9 | 0.00 | 0.00 | 0.00 | 47 | 1012.1 |
| 20260504033028 | 15 | 124 | 9.7 | 14.5 | 0.00 | 0.00 | 0.00 | 47 | 1012.5 |
| 20260504031535 | 16 | 110 | 6.4 | 9.7 | 0.00 | 0.00 | 0.00 | 59 | 1012.5 |
| 20260504030030 | 16 | 123 | 4.8 | 11.3 | 0.00 | 0.00 | 0.00 | 45 | 1012.7 |
| 20260504024529 | 16 | 133 | 3.2 | 9.7 | 0.00 | 0.00 | 0.00 | 45 | 1012.5 |
| 20260504023031 | 16 | 124 | 4.8 | 9.7 | 0.00 | 0.00 | 0.00 | 45 | 1012.7 |
| 20260504021530 | 16 | 152 | 4.8 | 9.7 | 0.00 | 0.00 | 0.00 | 45 | 1012.7 |
| 20260504020028 | 16 | 137 | 9.7 | 17.7 | 0.00 | 0.00 | 0.00 | 44 | 1012.5 |
| 20260504014534 | 16 | 119 | 8.0 | 12.9 | 0.00 | 0.00 | 0.00 | 57 | 1012.6 |
| 20260504013039 | 16 | 172 | 1.6 | 4.8 | 0.00 | 0.00 | 0.00 | 49 | 1012.8 |
| 20260504011534 | 16 | 201 | 1.6 | 11.3 | 0.00 | 0.00 | 0.00 | 46 | 1012.7 |
| 20260504010030 | 16 | 158 | 4.8 | 8.0 | 0.00 | 0.00 | 0.00 | 45 | 1012.7 |
| 20260504004529 | 17 | 125 | 6.4 | 14.5 | 0.00 | 0.00 | 0.00 | 42 | 1012.5 |
| 20260504003033 | 18 | 158 | 11.3 | 19.3 | 0.00 | 0.00 | 0.00 | 39 | 1012.5 |
| 20260504001537 | 18 | 159 | 12.9 | 24.1 | 0.00 | 0.00 | 0.00 | 37 | 1012.4 |
| 20260504000032 | 19 | 152 | 17.7 | 29.0 | 0.00 | 0.00 | 0.00 | 35 | 1012.3 |
| 20260503234539 | 19 | 163 | 19.3 | 43.5 | 0.00 | 0.00 | 0.00 | 46 | 1012.2 |
| 20260503233036 | 19 | 104 | 20.9 | 41.8 | 0.00 | 0.00 | 0.00 | 34 | 1012.3 |
| 20260503231534 | 19 | 171 | 22.5 | 45.1 | 0.00 | 0.00 | 0.00 | 33 | 1012.3 |
| 20260503230030 | 20 | 191 | 24.1 | 45.1 | 0.00 | 0.00 | 0.00 | 44 | 1012.7 |
| 20260503224529 | 20 | 164 | 25.7 | 41.8 | 0.00 | 0.00 | 0.00 | 44 | 1012.9 |
| 20260503223029 | 19 | 131 | 27.4 | 40.2 | 0.00 | 0.00 | 0.00 | 44 | 1013.0 |
| 20260503221535 | 20 | 159 | 27.4 | 40.2 | 0.00 | 0.00 | 0.00 | 32 | 1013.4 |
| 20260503220030 | 20 | 154 | 22.5 | 35.4 | 0.00 | 0.00 | 0.00 | 34 | 1013.6 |
| 20260503214531 | 19 | 190 | 19.3 | 43.5 | 0.00 | 0.00 | 0.00 | 34 | 1013.8 |
| 20260503213033 | 19 | 179 | 22.5 | 45.1 | 0.00 | 0.00 | 0.00 | 33 | 1014.1 |
| 20260503211529 | 19 | 168 | 27.4 | 45.1 | 0.00 | 0.00 | 0.00 | 44 | 1014.3 |
| 20260503210030 | 19 | 113 | 24.1 | 40.2 | 0.00 | 0.00 | 0.00 | 46 | 1014.9 |
| 20260503204532 | 19 | 124 | 22.5 | 37.0 | 0.00 | 0.00 | 0.00 | 45 | 1015.1 |
| 20260503203033 | 19 | 158 | 20.9 | 38.6 | 0.00 | 0.00 | 0.00 | 46 | 1015.4 |
| 20260503201532 | 18 | 150 | 20.9 | 33.8 | 0.00 | 0.00 | 0.00 | 47 | 1015.7 |
| 20260503200031 | 18 | 111 | 16.1 | 45.1 | 0.00 | 0.00 | 0.00 | 47 | 1016.2 |
| 20260503194528 | 18 | 152 | 22.5 | 41.8 | 0.00 | 0.00 | 0.00 | 47 | 1016.6 |
| 20260503193028 | 18 | 119 | 20.9 | 41.8 | 0.00 | 0.00 | 0.00 | 36 | 1016.8 |
| 20260503191534 | 18 | 185 | 19.3 | 35.4 | 0.00 | 0.00 | 0.00 | 37 | 1017.2 |
| 20260503190030 | 18 | 171 | 22.5 | 38.6 | 0.00 | 0.00 | 0.00 | 51 | 1017.3 |
| 20260503184531 | 17 | 189 | 19.3 | 37.0 | 0.00 | 0.00 | 0.00 | 37 | 1017.9 |
| 20260503183031 | 17 | 187 | 22.5 | 33.8 | 0.00 | 0.00 | 0.00 | 51 | 1018.1 |
| 20260503181532 | 17 | 184 | 22.5 | 37.0 | 0.00 | 0.00 | 0.00 | 50 | 1018.5 |
| 20260503180032 | 17 | 157 | 17.7 | 35.4 | 0.00 | 0.00 | 0.00 | 42 | 1018.7 |
| 20260503174529 | 16 | 178 | 16.1 | 32.2 | 0.00 | 0.00 | 0.00 | 55 | 1019.1 |
| 20260503173030 | 16 | 162 | 16.1 | 32.2 | 0.00 | 0.00 | 0.00 | 57 | 1019.3 |
| 20260503171530 | 16 | 112 | 14.5 | 35.4 | 0.00 | 0.00 | 0.00 | 57 | 1019.5 |